Time,TemperatureF,DewpointF,PressureIn,WindDirection,WindDirectionDegrees,WindSpeedMPH,WindSpeedGustMPH,Humidity,HourlyPrecipIn,Conditions,Clouds,dailyrainin,SoftwareType,DateUTC
2013-02-12 00:04:00,18.4,7.2,29.79,WNW,292,2.9,3.4,61,0.00,,SKC,0.00,VWS V14.01,2013-02-12 07:04:00,
2013-02-12 00:09:00,18.5,7.3,29.79,NNW,338,2.2,3.4,61,0.00,,SKC,0.00,VWS V14.01,2013-02-12 07:09:00,
2013-02-12 00:15:00,19.1,7.9,29.79,NNW,338,4.3,4.3,61,0.00,,SKC,0.00,VWS V14.01,2013-02-12 07:15:00,
2013-02-12 00:20:00,20.2,8.2,29.79,NW,315,1.3,4.3,59,0.00,,SKC,0.00,VWS V14.01,2013-02-12 07:20:00,
2013-02-12 00:25:00,20.9,8.5,29.79,WNW,292,2.5,4.3,58,0.00,,SKC,0.00,VWS V14.01,2013-02-12 07:25:00,
2013-02-12 00:30:00,21.2,8.7,29.78,WNW,292,0.4,4.3,58,0.00,,SKC,0.00,VWS V14.01,2013-02-12 07:30:00,
2013-02-12 00:35:00,21.2,8.4,29.79,WNW,292,0.2,2.2,57,0.00,,SKC,0.00,VWS V14.01,2013-02-12 07:35:00,
2013-02-12 00:40:00,21.6,8.3,29.79,NW,315,0.4,2.2,56,0.00,,SKC,0.00,VWS V14.01,2013-02-12 07:40:00,
2013-02-12 00:45:00,21.8,8.1,29.79,WNW,292,0.0,2.2,55,0.00,,SKC,0.00,VWS V14.01,2013-02-12 07:45:00,
2013-02-12 00:50:00,22.0,8.3,29.78,WNW,292,0.0,2.2,55,0.00,,SKC,0.00,VWS V14.01,2013-02-12 07:50:00,
2013-02-12 00:55:00,22.1,8.4,29.78,WNW,292,0.0,2.2,55,0.00,,SKC,0.00,VWS V14.01,2013-02-12 07:55:00,
2013-02-12 01:01:00,22.3,8.6,29.78,WNW,292,0.2,0.2,55,0.00,,SKC,0.00,VWS V14.01,2013-02-12 08:01:00,
2013-02-12 01:06:00,22.7,9.0,29.78,NNW,338,1.8,4.5,55,0.00,,SKC,0.00,VWS V14.01,2013-02-12 08:06:00,
2013-02-12 01:11:00,22.7,9.0,29.78,NW,315,0.4,4.5,55,0.00,,SKC,0.00,VWS V14.01,2013-02-12 08:11:00,
2013-02-12 01:16:00,22.9,8.8,29.78,WNW,292,0.2,4.5,54,0.00,,SKC,0.00,VWS V14.01,2013-02-12 08:16:00,
2013-02-12 01:21:00,22.9,8.8,29.78,NNW,338,0.9,4.5,54,0.00,,SKC,0.00,VWS V14.01,2013-02-12 08:21:00,
2013-02-12 01:26:00,22.9,8.8,29.78,NW,315,0.4,4.5,54,0.00,,SKC,0.00,VWS V14.01,2013-02-12 08:26:00,
2013-02-12 01:31:00,22.7,8.6,29.78,NW,315,0.0,0.0,54,0.00,,SKC,0.00,VWS V14.01,2013-02-12 08:31:00,
2013-02-12 01:36:00,22.1,8.4,29.78,NNW,338,0.4,1.3,55,0.00,,SKC,0.00,VWS V14.01,2013-02-12 08:36:00,
2013-02-12 01:42:00,22.0,8.3,29.78,NW,315,0.4,1.3,55,0.00,,SKC,0.00,VWS V14.01,2013-02-12 08:42:00,
2013-02-12 01:47:00,22.0,9.1,29.78,NW,315,0.2,1.3,57,0.00,,SKC,0.00,VWS V14.01,2013-02-12 08:47:00,
2013-02-12 01:52:00,22.0,8.7,29.78,NNW,338,0.0,1.3,56,0.00,,SKC,0.00,VWS V14.01,2013-02-12 08:52:00,
2013-02-12 01:57:00,22.1,8.8,29.78,NW,315,0.4,1.3,56,0.00,,SKC,0.00,VWS V14.01,2013-02-12 08:57:00,
2013-02-12 02:02:00,22.5,8.8,29.78,NW,315,0.2,0.2,55,0.00,,SKC,0.00,VWS V14.01,2013-02-12 09:02:00,
2013-02-12 02:07:00,22.5,9.2,29.78,NW,315,0.0,0.2,56,0.00,,SKC,0.00,VWS V14.01,2013-02-12 09:07:00,
2013-02-12 02:12:00,22.5,9.2,29.78,NW,315,0.0,0.2,56,0.00,,SKC,0.00,VWS V14.01,2013-02-12 09:12:00,
2013-02-12 02:17:00,22.5,9.6,29.78,NNW,338,0.9,0.9,57,0.00,,SKC,0.00,VWS V14.01,2013-02-12 09:17:00,
2013-02-12 02:23:00,22.3,9.4,29.78,NW,315,0.7,1.1,57,0.00,,SKC,0.00,VWS V14.01,2013-02-12 09:23:00,
2013-02-12 02:28:00,22.7,9.0,29.78,NW,315,0.4,1.1,55,0.00,,SKC,0.00,VWS V14.01,2013-02-12 09:28:00,
2013-02-12 02:33:00,22.9,9.6,29.78,NW,315,0.4,0.9,56,0.00,,SKC,0.00,VWS V14.01,2013-02-12 09:33:00,
2013-02-12 02:38:00,22.7,9.8,29.78,NW,315,2.5,2.5,57,0.00,,SKC,0.00,VWS V14.01,2013-02-12 09:38:00,
2013-02-12 02:43:00,22.7,9.4,29.78,NNW,338,1.6,2.9,56,0.00,,SKC,0.00,VWS V14.01,2013-02-12 09:43:00,
2013-02-12 02:48:00,22.7,9.4,29.77,NW,315,1.3,2.9,56,0.00,,SKC,0.00,VWS V14.01,2013-02-12 09:48:00,
2013-02-12 02:53:00,22.5,9.2,29.77,NW,315,0.2,2.9,56,0.00,,SKC,0.00,VWS V14.01,2013-02-12 09:53:00,
2013-02-12 02:58:00,22.0,9.1,29.78,NW,315,1.3,2.9,57,0.00,,SKC,0.00,VWS V14.01,2013-02-12 09:58:00,
2013-02-12 03:04:00,22.0,9.1,29.78,NNW,338,1.8,1.8,57,0.00,,SKC,0.00,VWS V14.01,2013-02-12 10:04:00,
2013-02-12 03:09:00,22.1,8.8,29.78,NW,315,3.4,3.4,56,0.00,,SKC,0.00,VWS V14.01,2013-02-12 10:09:00,
2013-02-12 03:14:00,22.1,8.8,29.78,NNW,338,2.5,4.0,56,0.00,,SKC,0.00,VWS V14.01,2013-02-12 10:14:00,
2013-02-12 03:19:00,22.3,9.0,29.77,NW,315,2.2,4.0,56,0.00,,SKC,0.00,VWS V14.01,2013-02-12 10:19:00,
2013-02-12 03:24:00,22.5,9.2,29.77,WNW,292,1.8,4.0,56,0.00,,SKC,0.00,VWS V14.01,2013-02-12 10:24:00,
2013-02-12 03:29:00,22.7,9.4,29.78,NNW,338,1.1,4.0,56,0.00,,SKC,0.00,VWS V14.01,2013-02-12 10:29:00,
2013-02-12 03:34:00,22.3,9.4,29.78,NW,315,1.6,2.2,57,0.00,,SKC,0.00,VWS V14.01,2013-02-12 10:34:00,
2013-02-12 03:40:00,22.1,9.2,29.78,NNW,338,1.3,2.7,57,0.00,,SKC,0.00,VWS V14.01,2013-02-12 10:40:00,
2013-02-12 03:45:00,22.5,8.8,29.78,NW,315,1.1,2.7,55,0.00,,SKC,0.00,VWS V14.01,2013-02-12 10:45:00,
2013-02-12 03:50:00,22.7,9.0,29.78,NNW,338,2.0,2.7,55,0.00,,SKC,0.00,VWS V14.01,2013-02-12 10:50:00,
2013-02-12 03:55:00,22.3,9.4,29.78,NW,315,2.0,2.7,57,0.00,,SKC,0.00,VWS V14.01,2013-02-12 10:55:00,
2013-02-12 04:00:00,22.3,9.8,29.78,NNW,338,2.0,2.0,58,0.00,,SKC,0.00,VWS V14.01,2013-02-12 11:00:00,
2013-02-12 04:05:00,22.1,10.0,29.79,NW,315,2.0,2.0,59,0.00,,SKC,0.00,VWS V14.01,2013-02-12 11:05:00,
2013-02-12 04:11:00,22.1,9.6,29.79,NW,315,3.4,3.4,58,0.00,,SKC,0.00,VWS V14.01,2013-02-12 11:11:00,
2013-02-12 04:16:00,22.3,9.8,29.79,NW,315,1.8,3.4,58,0.00,,SKC,0.00,VWS V14.01,2013-02-12 11:16:00,
2013-02-12 04:21:00,22.5,9.6,29.79,NW,315,0.9,3.4,57,0.00,,SKC,0.00,VWS V14.01,2013-02-12 11:21:00,
2013-02-12 04:26:00,22.3,9.8,29.79,NW,315,0.4,3.4,58,0.00,,SKC,0.00,VWS V14.01,2013-02-12 11:26:00,
2013-02-12 04:31:00,22.0,10.2,29.79,NNW,338,1.1,1.1,60,0.00,,SKC,0.00,VWS V14.01,2013-02-12 11:31:00,
2013-02-12 04:36:00,21.4,10.4,29.79,NNW,338,1.6,1.8,62,0.00,,SKC,0.00,VWS V14.01,2013-02-12 11:36:00,
2013-02-12 04:41:00,21.1,10.8,29.79,NW,315,0.7,1.8,64,0.00,,SKC,0.00,VWS V14.01,2013-02-12 11:41:00,
2013-02-12 04:46:00,20.5,9.9,29.79,NNW,338,1.8,1.8,63,0.00,,SKC,0.00,VWS V14.01,2013-02-12 11:46:00,
2013-02-12 04:52:00,20.5,10.3,29.79,NNW,338,1.3,1.8,64,0.00,,SKC,0.00,VWS V14.01,2013-02-12 11:52:00,
2013-02-12 04:57:00,20.5,10.3,29.79,NW,315,0.7,2.5,64,0.00,,SKC,0.00,VWS V14.01,2013-02-12 11:57:00,
2013-02-12 05:02:00,21.1,10.8,29.79,NW,315,1.1,1.8,64,0.00,,SKC,0.00,VWS V14.01,2013-02-12 12:02:00,
2013-02-12 05:07:00,21.2,10.6,29.79,WNW,292,0.7,1.8,63,0.00,,SKC,0.00,VWS V14.01,2013-02-12 12:07:00,
2013-02-12 05:12:00,21.4,10.8,29.79,NW,315,2.0,2.0,63,0.00,,SKC,0.00,VWS V14.01,2013-02-12 12:12:00,
2013-02-12 05:17:00,21.6,11.0,29.80,NW,315,1.6,2.5,63,0.00,,SKC,0.00,VWS V14.01,2013-02-12 12:17:00,
2013-02-12 05:22:00,21.6,11.0,29.80,NW,315,2.0,2.5,63,0.00,,SKC,0.00,VWS V14.01,2013-02-12 12:22:00,
2013-02-12 05:28:00,22.0,11.7,29.80,NW,315,1.8,2.5,64,0.00,,SKC,0.00,VWS V14.01,2013-02-12 12:28:00,
2013-02-12 05:33:00,22.1,11.8,29.80,NW,315,2.2,2.2,64,0.00,,SKC,0.00,VWS V14.01,2013-02-12 12:33:00,
2013-02-12 05:38:00,22.1,11.8,29.80,NW,315,1.1,2.9,64,0.00,,SKC,0.00,VWS V14.01,2013-02-12 12:38:00,
2013-02-12 05:43:00,22.1,11.8,29.80,NW,315,2.0,2.9,64,0.00,,SKC,0.00,VWS V14.01,2013-02-12 12:43:00,
2013-02-12 05:48:00,22.3,12.0,29.80,NW,315,1.1,2.9,64,0.00,,SKC,0.00,VWS V14.01,2013-02-12 12:48:00,
2013-02-12 05:53:00,22.7,12.7,29.80,NW,315,2.5,2.9,65,0.00,,SKC,0.00,VWS V14.01,2013-02-12 12:53:00,
2013-02-12 05:58:00,23.0,12.6,29.80,NW,315,3.4,3.4,64,0.00,,SKC,0.00,VWS V14.01,2013-02-12 12:58:00,
2013-02-12 06:03:00,23.4,12.7,29.80,NW,315,2.5,2.5,63,0.00,,SKC,0.00,VWS V14.01,2013-02-12 13:03:00,
2013-02-12 06:09:00,23.8,13.8,29.80,NNW,338,1.8,3.6,65,0.00,,SKC,0.00,VWS V14.01,2013-02-12 13:09:00,
2013-02-12 06:14:00,23.8,13.8,29.80,NW,315,1.1,3.6,65,0.00,,SKC,0.00,VWS V14.01,2013-02-12 13:14:00,
2013-02-12 06:19:00,23.6,13.2,29.80,WNW,292,2.5,3.6,64,0.00,,SKC,0.00,VWS V14.01,2013-02-12 13:19:00,
2013-02-12 06:24:00,23.6,13.2,29.81,NW,315,1.1,3.6,64,0.00,,SKC,0.00,VWS V14.01,2013-02-12 13:24:00,
2013-02-12 06:29:00,23.6,12.9,29.81,NW,315,1.8,3.6,63,0.00,,SKC,0.00,VWS V14.01,2013-02-12 13:29:00,
2013-02-12 06:34:00,23.8,12.7,29.80,NW,315,2.5,2.7,62,0.00,,SKC,0.00,VWS V14.01,2013-02-12 13:34:00,
2013-02-12 06:39:00,23.6,12.5,29.81,NNW,338,1.1,2.7,62,0.00,,SKC,0.00,VWS V14.01,2013-02-12 13:39:00,
2013-02-12 06:45:00,23.4,12.3,29.81,NW,315,1.8,2.7,62,0.00,,SKC,0.00,VWS V14.01,2013-02-12 13:45:00,
2013-02-12 06:50:00,23.4,11.9,29.81,NW,315,0.2,2.7,61,0.00,,SKC,0.00,VWS V14.01,2013-02-12 13:50:00,
2013-02-12 06:55:00,23.4,11.9,29.81,NW,315,0.4,2.9,61,0.00,,SKC,0.00,VWS V14.01,2013-02-12 13:55:00,
2013-02-12 07:00:00,23.2,12.1,29.81,NNW,338,0.9,0.9,62,0.00,,SKC,0.00,VWS V14.01,2013-02-12 14:00:00,
2013-02-12 07:05:00,22.7,11.6,29.81,NW,315,0.0,0.9,62,0.00,,SKC,0.00,VWS V14.01,2013-02-12 14:05:00,
2013-02-12 07:10:00,22.7,11.6,29.81,NW,315,1.8,2.0,62,0.00,,SKC,0.00,VWS V14.01,2013-02-12 14:10:00,
2013-02-12 07:15:00,22.7,12.0,29.81,NW,315,2.9,2.9,63,0.00,,SKC,0.00,VWS V14.01,2013-02-12 14:15:00,
2013-02-12 07:20:00,23.4,12.7,29.81,NNW,338,1.8,2.9,63,0.00,,SKC,0.00,VWS V14.01,2013-02-12 14:20:00,
2013-02-12 07:26:00,24.1,13.3,29.82,NW,315,1.1,2.9,63,0.00,,SKC,0.00,VWS V14.01,2013-02-12 14:26:00,
2013-02-12 07:31:00,24.7,13.9,29.82,NW,315,2.0,2.0,63,0.00,,SKC,0.00,VWS V14.01,2013-02-12 14:31:00,
2013-02-12 07:36:00,25.2,13.6,29.82,NW,315,2.5,2.5,61,0.00,,SKC,0.00,VWS V14.01,2013-02-12 14:36:00,
2013-02-12 07:41:00,25.6,13.7,29.82,NW,315,0.7,2.5,60,0.00,,SKC,0.00,VWS V14.01,2013-02-12 14:41:00,
2013-02-12 07:46:00,25.7,13.8,29.82,NNW,338,0.0,2.5,60,0.00,,SKC,0.00,VWS V14.01,2013-02-12 14:46:00,
2013-02-12 07:51:00,26.1,14.1,29.82,NNW,338,0.0,2.5,60,0.00,,SKC,0.00,VWS V14.01,2013-02-12 14:51:00,
2013-02-12 07:56:00,26.1,14.5,29.82,NW,315,0.0,2.5,61,0.00,,SKC,0.00,VWS V14.01,2013-02-12 14:56:00,
2013-02-12 08:01:00,26.3,15.1,29.82,NNW,338,0.7,0.7,62,0.00,,SKC,0.00,VWS V14.01,2013-02-12 15:01:00,
2013-02-12 08:07:00,26.6,15.4,29.82,NNW,338,0.4,0.7,62,0.00,,SKC,0.00,VWS V14.01,2013-02-12 15:07:00,
2013-02-12 08:12:00,27.0,15.7,29.82,NNW,338,0.0,0.7,62,0.00,,SKC,0.00,VWS V14.01,2013-02-12 15:12:00,
2013-02-12 08:17:00,27.4,15.7,29.82,NW,315,0.4,0.7,61,0.00,,SKC,0.00,VWS V14.01,2013-02-12 15:17:00,
2013-02-12 08:22:00,27.9,15.8,29.82,NW,315,0.2,0.7,60,0.00,,SKC,0.00,VWS V14.01,2013-02-12 15:22:00,
2013-02-12 08:27:00,28.6,15.7,29.82,NNW,338,0.2,3.1,58,0.00,,SKC,0.00,VWS V14.01,2013-02-12 15:27:00,
2013-02-12 08:32:00,29.3,16.0,29.82,WNW,292,0.2,0.2,57,0.00,,SKC,0.00,VWS V14.01,2013-02-12 15:32:00,
2013-02-12 08:37:00,29.9,15.7,29.82,NW,315,0.0,0.4,55,0.00,,SKC,0.00,VWS V14.01,2013-02-12 15:37:00,
2013-02-12 08:43:00,30.6,16.4,29.82,NW,315,0.9,0.9,55,0.00,,SKC,0.00,VWS V14.01,2013-02-12 15:43:00,
2013-02-12 08:48:00,31.1,16.0,29.82,NW,315,0.9,1.3,53,0.00,,SKC,0.00,VWS V14.01,2013-02-12 15:48:00,
2013-02-12 08:53:00,31.7,16.1,29.82,NW,315,0.4,3.1,52,0.00,,SKC,0.00,VWS V14.01,2013-02-12 15:53:00,
2013-02-12 08:58:00,32.0,15.9,29.83,NW,315,2.2,3.1,51,0.00,,SKC,0.00,VWS V14.01,2013-02-12 15:58:00,
2013-02-12 09:03:00,32.9,16.8,29.82,North,0,0.7,0.7,51,0.00,,SKC,0.00,VWS V14.01,2013-02-12 16:03:00,
2013-02-12 09:08:00,34.2,16.6,29.83,NNW,338,2.5,2.5,48,0.00,,SKC,0.00,VWS V14.01,2013-02-12 16:08:00,
2013-02-12 09:13:00,36.0,17.2,29.82,NW,315,0.4,2.5,46,0.00,,SKC,0.00,VWS V14.01,2013-02-12 16:13:00,
2013-02-12 09:19:00,38.9,19.4,29.83,NW,315,1.1,2.5,45,0.00,,SKC,0.00,VWS V14.01,2013-02-12 16:19:00,
2013-02-12 09:24:00,40.5,18.1,29.83,NW,315,0.9,2.5,40,0.00,,SKC,0.00,VWS V14.01,2013-02-12 16:24:00,
2013-02-12 09:29:00,42.3,19.1,29.83,WNW,292,1.3,2.5,39,0.00,,SKC,0.00,VWS V14.01,2013-02-12 16:29:00,
2013-02-12 09:34:00,44.5,18.6,29.83,NW,315,0.2,1.3,35,0.00,,SKC,0.00,VWS V14.01,2013-02-12 16:34:00,
2013-02-12 09:39:00,45.7,19.0,29.83,NW,315,0.2,1.3,34,0.00,,SKC,0.00,VWS V14.01,2013-02-12 16:39:00,
2013-02-12 09:44:00,45.9,18.4,29.83,NW,315,0.2,1.3,33,0.00,,SKC,0.00,VWS V14.01,2013-02-12 16:44:00,
2013-02-12 09:49:00,46.3,19.5,29.83,NW,315,0.2,1.3,34,0.00,,SKC,0.00,VWS V14.01,2013-02-12 16:49:00,
2013-02-12 09:55:00,46.8,19.2,29.83,NW,315,0.2,1.3,33,0.00,,SKC,0.00,VWS V14.01,2013-02-12 16:55:00,
2013-02-12 10:00:00,47.0,19.4,29.83,NW,315,0.2,1.3,33,0.00,,SKC,0.00,VWS V14.01,2013-02-12 17:00:00,
2013-02-12 10:05:00,47.2,18.9,29.83,NW,315,0.2,0.2,32,0.00,,SKC,0.00,VWS V14.01,2013-02-12 17:05:00,
2013-02-12 10:10:00,47.2,18.9,29.83,NW,315,0.2,0.2,32,0.00,,SKC,0.00,VWS V14.01,2013-02-12 17:10:00,
2013-02-12 10:15:00,48.1,18.9,29.83,NW,315,0.2,0.2,31,0.00,,SKC,0.00,VWS V14.01,2013-02-12 17:15:00,
2013-02-12 10:20:00,48.2,19.7,29.83,NW,315,0.2,0.2,32,0.00,,SKC,0.00,VWS V14.01,2013-02-12 17:20:00,
2013-02-12 10:25:00,48.2,18.2,29.83,NW,315,0.2,0.2,30,0.00,,SKC,0.00,VWS V14.01,2013-02-12 17:25:00,
2013-02-12 10:30:00,47.5,19.9,29.83,NW,315,0.2,0.2,33,0.00,,SKC,0.00,VWS V14.01,2013-02-12 17:30:00,
2013-02-12 10:35:00,46.4,18.2,29.83,NW,315,0.2,0.2,32,0.00,,SKC,0.00,VWS V14.01,2013-02-12 17:35:00,
2013-02-12 10:41:00,46.8,19.2,29.83,NW,315,0.2,0.2,33,0.00,,SKC,0.00,VWS V14.01,2013-02-12 17:41:00,
2013-02-12 10:46:00,45.9,19.1,29.83,NW,315,0.2,0.2,34,0.00,,SKC,0.00,VWS V14.01,2013-02-12 17:46:00,
2013-02-12 10:51:00,45.4,20.0,29.83,NW,315,0.2,0.2,36,0.00,,SKC,0.00,VWS V14.01,2013-02-12 17:51:00,
2013-02-12 10:56:00,45.0,19.0,29.84,NW,315,0.2,0.2,35,0.00,,SKC,0.00,VWS V14.01,2013-02-12 17:56:00,
2013-02-12 11:01:00,44.8,19.5,29.84,NW,315,0.2,0.2,36,0.00,,SKC,0.00,VWS V14.01,2013-02-12 18:01:00,
2013-02-12 11:06:00,45.7,19.6,29.84,NW,315,0.2,0.2,35,0.00,,SKC,0.00,VWS V14.01,2013-02-12 18:06:00,
2013-02-12 11:11:00,45.0,19.7,29.83,NW,315,0.2,0.2,36,0.00,,SKC,0.00,VWS V14.01,2013-02-12 18:11:00,
2013-02-12 11:17:00,43.9,19.3,29.83,NW,315,0.2,0.2,37,0.00,,SKC,0.00,VWS V14.01,2013-02-12 18:17:00,
2013-02-12 11:22:00,43.7,19.1,29.83,NW,315,0.2,0.2,37,0.00,,SKC,0.00,VWS V14.01,2013-02-12 18:22:00,
2013-02-12 11:27:00,43.7,19.8,29.83,NW,315,0.2,0.2,38,0.00,,SKC,0.00,VWS V14.01,2013-02-12 18:27:00,
2013-02-12 11:32:00,43.6,20.3,29.83,NW,315,0.2,0.2,39,0.00,,SKC,0.00,VWS V14.01,2013-02-12 18:32:00,
2013-02-12 11:37:00,43.7,20.4,29.83,NW,315,0.2,0.2,39,0.00,,SKC,0.00,VWS V14.01,2013-02-12 18:37:00,
2013-02-12 11:42:00,43.7,19.8,29.83,NW,315,1.1,1.8,38,0.00,,SKC,0.00,VWS V14.01,2013-02-12 18:42:00,
2013-02-12 11:47:00,44.1,20.1,29.83,WNW,292,0.4,2.5,38,0.00,,SKC,0.00,VWS V14.01,2013-02-12 18:47:00,
2013-02-12 11:52:00,43.6,19.7,29.83,WNW,292,0.4,2.7,38,0.00,,SKC,0.00,VWS V14.01,2013-02-12 18:52:00,
2013-02-12 11:58:00,43.2,19.9,29.82,NW,315,6.5,6.5,39,0.00,,SKC,0.00,VWS V14.01,2013-02-12 18:58:00,
2013-02-12 12:03:00,43.2,19.9,29.82,WNW,292,2.5,3.6,39,0.00,,SKC,0.00,VWS V14.01,2013-02-12 19:03:00,
2013-02-12 12:08:00,43.2,19.9,29.82,NW,315,1.6,4.0,39,0.00,,SKC,0.00,VWS V14.01,2013-02-12 19:08:00,
2013-02-12 12:13:00,43.2,20.5,29.82,WNW,292,2.5,4.0,40,0.00,,SKC,0.00,VWS V14.01,2013-02-12 19:13:00,
2013-02-12 12:18:00,43.4,19.5,29.82,WNW,292,3.8,4.0,38,0.00,,SKC,0.00,VWS V14.01,2013-02-12 19:18:00,
2013-02-12 12:23:00,43.6,19.7,29.82,NW,315,2.7,4.0,38,0.00,,SKC,0.00,VWS V14.01,2013-02-12 19:23:00,
2013-02-12 12:28:00,43.9,21.2,29.82,NW,315,1.8,4.0,40,0.00,,SKC,0.00,VWS V14.01,2013-02-12 19:28:00,
2013-02-12 12:33:00,44.3,20.9,29.82,NW,315,2.5,2.5,39,0.00,,SKC,0.00,VWS V14.01,2013-02-12 19:33:00,
2013-02-12 12:39:00,44.1,19.5,29.82,NW,315,3.1,4.3,37,0.00,,SKC,0.00,VWS V14.01,2013-02-12 19:39:00,
2013-02-12 12:44:00,43.9,20.0,29.81,North,0,3.4,4.3,38,0.00,,SKC,0.00,VWS V14.01,2013-02-12 19:44:00,
2013-02-12 12:49:00,43.7,19.1,29.81,NW,315,4.0,4.3,37,0.00,,SKC,0.00,VWS V14.01,2013-02-12 19:49:00,
2013-02-12 12:54:00,43.9,21.2,29.82,NW,315,5.4,5.4,40,0.00,,SKC,0.00,VWS V14.01,2013-02-12 19:54:00,
2013-02-12 12:59:00,43.6,19.7,29.82,WNW,292,2.9,7.2,38,0.00,,SKC,0.00,VWS V14.01,2013-02-12 19:59:00,
2013-02-12 13:04:00,43.2,19.3,29.82,NE,45,4.5,4.5,38,0.00,,SKC,0.00,VWS V14.01,2013-02-12 20:04:00,
2013-02-12 13:09:00,43.0,19.1,29.81,WNW,292,6.9,6.9,38,0.00,,SKC,0.00,VWS V14.01,2013-02-12 20:09:00,
2013-02-12 13:15:00,42.7,20.1,29.81,WNW,292,0.9,6.9,40,0.00,,SKC,0.00,VWS V14.01,2013-02-12 20:15:00,
2013-02-12 13:20:00,42.8,19.6,29.81,WNW,292,3.8,6.9,39,0.00,,SKC,0.00,VWS V14.01,2013-02-12 20:20:00,
2013-02-12 13:25:00,42.7,18.9,29.81,WNW,292,4.9,6.9,38,0.00,,SKC,0.00,VWS V14.01,2013-02-12 20:25:00,
2013-02-12 13:30:00,42.7,19.5,29.81,NE,45,0.7,6.9,39,0.00,,SKC,0.00,VWS V14.01,2013-02-12 20:30:00,
2013-02-12 13:35:00,42.5,19.3,29.81,NW,315,3.1,4.7,39,0.00,,SKC,0.00,VWS V14.01,2013-02-12 20:35:00,
2013-02-12 13:40:00,42.1,19.5,29.81,NW,315,0.9,4.7,40,0.00,,SKC,0.00,VWS V14.01,2013-02-12 20:40:00,
2013-02-12 13:45:00,42.1,19.0,29.81,WNW,292,1.3,4.7,39,0.00,,SKC,0.00,VWS V14.01,2013-02-12 20:45:00,
2013-02-12 13:50:00,41.9,19.4,29.80,NNW,338,2.2,6.0,40,0.00,,SKC,0.00,VWS V14.01,2013-02-12 20:50:00,
2013-02-12 13:55:00,41.4,18.9,29.80,WNW,292,3.4,6.0,40,0.00,,SKC,0.00,VWS V14.01,2013-02-12 20:55:00,
2013-02-12 14:00:00,41.2,19.9,29.80,WNW,292,2.9,2.9,42,0.00,,SKC,0.00,VWS V14.01,2013-02-12 21:00:00,
2013-02-12 14:06:00,41.4,19.5,29.80,WNW,292,1.1,3.8,41,0.00,,SKC,0.00,VWS V14.01,2013-02-12 21:06:00,
2013-02-12 14:11:00,41.6,19.1,29.80,WNW,292,1.8,3.8,40,0.00,,SKC,0.00,VWS V14.01,2013-02-12 21:11:00,
2013-02-12 14:16:00,41.6,18.5,29.80,NW,315,2.7,7.2,39,0.00,,SKC,0.00,VWS V14.01,2013-02-12 21:16:00,
2013-02-12 14:21:00,41.8,18.7,29.80,WNW,292,3.6,7.2,39,0.00,,SKC,0.00,VWS V14.01,2013-02-12 21:21:00,
2013-02-12 14:26:00,41.8,19.3,29.80,NW,315,1.3,7.2,40,0.00,,SKC,0.00,VWS V14.01,2013-02-12 21:26:00,
2013-02-12 14:31:00,41.8,18.7,29.80,NW,315,2.2,2.2,39,0.00,,SKC,0.00,VWS V14.01,2013-02-12 21:31:00,
2013-02-12 14:36:00,41.8,18.7,29.79,WNW,292,2.5,2.9,39,0.00,,SKC,0.00,VWS V14.01,2013-02-12 21:36:00,
2013-02-12 14:42:00,42.1,19.0,29.79,NW,315,2.7,4.0,39,0.00,,SKC,0.00,VWS V14.01,2013-02-12 21:42:00,
2013-02-12 14:47:00,41.9,18.2,29.79,ENE,68,1.1,4.0,38,0.00,,SKC,0.00,VWS V14.01,2013-02-12 21:47:00,
2013-02-12 14:52:00,41.6,18.5,29.79,WNW,292,2.0,4.0,39,0.00,,SKC,0.00,VWS V14.01,2013-02-12 21:52:00,
2013-02-12 14:57:00,41.0,17.4,29.79,WNW,292,4.0,4.0,38,0.00,,SKC,0.00,VWS V14.01,2013-02-12 21:57:00,
2013-02-12 15:02:00,40.9,17.9,29.80,WNW,292,3.8,5.6,39,0.00,,SKC,0.00,VWS V14.01,2013-02-12 22:02:00,
2013-02-12 15:07:00,40.7,18.3,29.80,NW,315,2.7,5.6,40,0.00,,SKC,0.00,VWS V14.01,2013-02-12 22:07:00,
2013-02-12 15:12:00,40.5,17.5,29.80,NNW,338,1.1,5.6,39,0.00,,SKC,0.00,VWS V14.01,2013-02-12 22:12:00,
2013-02-12 15:17:00,40.3,17.9,29.80,North,0,1.1,6.9,40,0.00,,SKC,0.00,VWS V14.01,2013-02-12 22:17:00,
2013-02-12 15:22:00,40.5,18.1,29.80,NNW,338,0.4,6.9,40,0.00,,SKC,0.00,VWS V14.01,2013-02-12 22:22:00,
2013-02-12 15:28:00,40.7,18.3,29.80,North,0,2.9,6.9,40,0.00,,SKC,0.00,VWS V14.01,2013-02-12 22:28:00,
2013-02-12 15:33:00,40.5,18.7,29.80,WNW,292,0.7,1.8,41,0.00,,SKC,0.00,VWS V14.01,2013-02-12 22:33:00,
2013-02-12 15:38:00,40.3,19.0,29.80,NW,315,2.0,2.0,42,0.00,,SKC,0.00,VWS V14.01,2013-02-12 22:38:00,
2013-02-12 15:43:00,40.1,18.3,29.80,NW,315,2.5,2.5,41,0.00,,SKC,0.00,VWS V14.01,2013-02-12 22:43:00,
2013-02-12 15:48:00,39.6,17.3,29.80,NW,315,1.1,6.7,40,0.00,,SKC,0.00,VWS V14.01,2013-02-12 22:48:00,
2013-02-12 15:53:00,39.2,18.0,29.80,WNW,292,1.6,6.7,42,0.00,,SKC,0.00,VWS V14.01,2013-02-12 22:53:00,
2013-02-12 15:58:00,39.1,18.5,29.80,East,90,0.2,6.7,43,0.00,,SKC,0.00,VWS V14.01,2013-02-12 22:58:00,
2013-02-12 16:03:00,38.5,18.0,29.80,NW,315,2.5,2.5,43,0.00,,SKC,0.00,VWS V14.01,2013-02-12 23:03:00,
2013-02-12 16:09:00,38.0,18.0,29.80,WNW,292,1.1,2.5,44,0.00,,SKC,0.00,VWS V14.01,2013-02-12 23:09:00,
2013-02-12 16:14:00,37.6,17.7,29.80,WNW,292,4.0,5.1,44,0.00,,SKC,0.00,VWS V14.01,2013-02-12 23:14:00,
2013-02-12 16:19:00,37.3,17.9,29.80,NNE,22,1.1,5.1,45,0.00,,SKC,0.00,VWS V14.01,2013-02-12 23:19:00,
2013-02-12 16:24:00,37.1,17.7,29.80,WNW,292,0.9,5.1,45,0.00,,SKC,0.00,VWS V14.01,2013-02-12 23:24:00,
2013-02-12 16:29:00,36.9,18.1,29.80,NW,315,0.7,5.1,46,0.00,,SKC,0.00,VWS V14.01,2013-02-12 23:29:00,
2013-02-12 16:34:00,36.5,18.2,29.80,NW,315,0.7,0.7,47,0.00,,SKC,0.00,VWS V14.01,2013-02-12 23:34:00,
2013-02-12 16:39:00,36.0,17.7,29.81,NNW,338,1.1,1.8,47,0.00,,SKC,0.00,VWS V14.01,2013-02-12 23:39:00,
2013-02-12 16:44:00,36.0,18.2,29.81,WNW,292,0.7,1.8,48,0.00,,SKC,0.00,VWS V14.01,2013-02-12 23:44:00,
2013-02-12 16:50:00,35.5,17.8,29.81,NW,315,2.7,4.3,48,0.00,,SKC,0.00,VWS V14.01,2013-02-12 23:50:00,
2013-02-12 16:55:00,35.1,17.4,29.81,WNW,292,1.3,4.3,48,0.00,,SKC,0.00,VWS V14.01,2013-02-12 23:55:00,
2013-02-12 17:00:00,34.6,17.4,29.81,WNW,292,0.7,0.7,49,0.00,,SKC,0.00,VWS V14.01,2013-02-13 00:00:00,
2013-02-12 17:05:00,34.2,17.5,29.81,NW,315,1.1,2.0,50,0.00,,SKC,0.00,VWS V14.01,2013-02-13 00:05:00,
2013-02-12 17:10:00,33.8,17.1,29.81,WNW,292,1.6,2.0,50,0.00,,SKC,0.00,VWS V14.01,2013-02-13 00:10:00,
2013-02-12 17:15:00,33.7,17.5,29.82,NW,315,0.7,4.3,51,0.00,,SKC,0.00,VWS V14.01,2013-02-13 00:15:00,
2013-02-12 17:20:00,33.3,18.0,29.82,NW,315,2.2,4.3,53,0.00,,SKC,0.00,VWS V14.01,2013-02-13 00:20:00,
2013-02-12 17:25:00,32.9,17.7,29.82,NW,315,1.6,4.3,53,0.00,,SKC,0.00,VWS V14.01,2013-02-13 00:25:00,
2013-02-12 17:30:00,32.8,17.6,29.82,NW,315,2.7,2.7,53,0.00,,SKC,0.00,VWS V14.01,2013-02-13 00:30:00,
2013-02-12 17:36:00,32.8,17.6,29.82,NNW,338,1.8,3.4,53,0.00,,SKC,0.00,VWS V14.01,2013-02-13 00:36:00,
2013-02-12 17:41:00,32.8,18.0,29.82,WNW,292,0.9,3.6,54,0.00,,SKC,0.00,VWS V14.01,2013-02-13 00:41:00,
2013-02-12 17:46:00,32.8,18.0,29.82,NW,315,1.3,3.6,54,0.00,,SKC,0.00,VWS V14.01,2013-02-13 00:46:00,
2013-02-12 17:51:00,32.4,18.5,29.82,NW,315,3.1,3.6,56,0.00,,SKC,0.00,VWS V14.01,2013-02-13 00:51:00,
2013-02-12 17:56:00,32.2,18.3,29.82,NW,315,1.6,3.6,56,0.00,,SKC,0.00,VWS V14.01,2013-02-13 00:56:00,
2013-02-12 18:01:00,32.2,18.3,29.82,NW,315,0.7,0.7,56,0.00,,SKC,0.00,VWS V14.01,2013-02-13 01:01:00,
2013-02-12 18:06:00,32.0,18.1,29.82,NW,315,0.9,1.1,56,0.00,,SKC,0.00,VWS V14.01,2013-02-13 01:06:00,
2013-02-12 18:11:00,32.0,18.1,29.82,NNW,338,1.6,1.6,56,0.00,,SKC,0.00,VWS V14.01,2013-02-13 01:11:00,
2013-02-12 18:17:00,32.0,18.1,29.82,WNW,292,2.9,2.9,56,0.00,,SKC,0.00,VWS V14.01,2013-02-13 01:17:00,
2013-02-12 18:22:00,32.0,18.1,29.82,WNW,292,1.1,2.9,56,0.00,,SKC,0.00,VWS V14.01,2013-02-13 01:22:00,
2013-02-12 18:27:00,32.0,18.1,29.82,WNW,292,2.7,4.0,56,0.00,,SKC,0.00,VWS V14.01,2013-02-13 01:27:00,
2013-02-12 18:32:00,32.0,18.1,29.82,NNW,338,1.1,1.1,56,0.00,,SKC,0.00,VWS V14.01,2013-02-13 01:32:00,
2013-02-12 18:37:00,31.9,18.0,29.82,NNW,338,1.1,2.2,56,0.00,,SKC,0.00,VWS V14.01,2013-02-13 01:37:00,
2013-02-12 18:42:00,31.7,17.8,29.82,NNW,338,1.6,2.2,56,0.00,,SKC,0.00,VWS V14.01,2013-02-13 01:42:00,
2013-02-12 18:47:00,31.5,17.6,29.82,NW,315,0.4,2.2,56,0.00,,SKC,0.00,VWS V14.01,2013-02-13 01:47:00,
2013-02-12 18:52:00,31.3,17.9,29.82,NW,315,1.8,2.2,57,0.00,,SKC,0.00,VWS V14.01,2013-02-13 01:52:00,
2013-02-12 18:58:00,31.0,18.4,29.82,NNW,338,2.5,2.5,59,0.00,,SKC,0.00,VWS V14.01,2013-02-13 01:58:00,
2013-02-12 19:03:00,30.8,17.8,29.82,NW,315,0.2,1.6,58,0.00,,SKC,0.00,VWS V14.01,2013-02-13 02:03:00,
2013-02-12 19:08:00,30.6,18.0,29.81,NW,315,0.7,1.6,59,0.00,,SKC,0.00,VWS V14.01,2013-02-13 02:08:00,
2013-02-12 19:13:00,30.6,18.0,29.81,WNW,292,1.1,2.5,59,0.00,,SKC,0.00,VWS V14.01,2013-02-13 02:13:00,
2013-02-12 19:18:00,30.6,18.4,29.81,WNW,292,1.8,2.9,60,0.00,,SKC,0.00,VWS V14.01,2013-02-13 02:18:00,
2013-02-12 19:23:00,30.2,18.4,29.81,NW,315,1.8,2.9,61,0.00,,SKC,0.00,VWS V14.01,2013-02-13 02:23:00,
2013-02-12 19:28:00,30.1,18.3,29.81,WNW,292,1.3,2.9,61,0.00,,SKC,0.00,VWS V14.01,2013-02-13 02:28:00,
2013-02-12 19:33:00,29.9,18.5,29.81,NW,315,1.3,1.3,62,0.00,,SKC,0.00,VWS V14.01,2013-02-13 02:33:00,
2013-02-12 19:39:00,30.1,18.7,29.81,WNW,292,0.4,3.4,62,0.00,,SKC,0.00,VWS V14.01,2013-02-13 02:39:00,
2013-02-12 19:44:00,30.2,18.8,29.81,NW,315,3.6,3.6,62,0.00,,SKC,0.00,VWS V14.01,2013-02-13 02:44:00,
2013-02-12 19:49:00,30.6,18.8,29.81,WNW,292,2.2,3.6,61,0.00,,SKC,0.00,VWS V14.01,2013-02-13 02:49:00,
2013-02-12 19:54:00,30.6,18.8,29.81,NW,315,0.7,4.0,61,0.00,,SKC,0.00,VWS V14.01,2013-02-13 02:54:00,
2013-02-12 19:59:00,30.8,19.0,29.81,NW,315,0.9,4.0,61,0.00,,SKC,0.00,VWS V14.01,2013-02-13 02:59:00,
2013-02-12 20:04:00,30.8,19.3,29.81,NW,315,0.4,2.9,62,0.00,,SKC,0.00,VWS V14.01,2013-02-13 03:04:00,
2013-02-12 20:09:00,30.8,19.3,29.81,NE,45,3.4,3.4,62,0.00,,SKC,0.00,VWS V14.01,2013-02-13 03:09:00,
2013-02-12 20:14:00,31.0,19.5,29.81,WNW,292,2.2,3.4,62,0.00,,SKC,0.00,VWS V14.01,2013-02-13 03:14:00,
2013-02-12 20:20:00,31.0,19.5,29.81,NW,315,1.6,3.4,62,0.00,,SKC,0.00,VWS V14.01,2013-02-13 03:20:00,
2013-02-12 20:25:00,31.1,19.6,29.81,WNW,292,1.8,3.4,62,0.00,,SKC,0.00,VWS V14.01,2013-02-13 03:25:00,
2013-02-12 20:30:00,31.3,19.4,29.81,WNW,292,3.4,3.4,61,0.00,,SKC,0.00,VWS V14.01,2013-02-13 03:30:00,
2013-02-12 20:35:00,31.3,19.4,29.80,NW,315,2.7,3.4,61,0.00,,SKC,0.00,VWS V14.01,2013-02-13 03:35:00,
2013-02-12 20:40:00,31.7,19.8,29.80,WNW,292,1.6,3.4,61,0.00,,SKC,0.00,VWS V14.01,2013-02-13 03:40:00,
2013-02-12 20:45:00,31.7,19.4,29.81,NW,315,2.5,3.6,60,0.00,,SKC,0.00,VWS V14.01,2013-02-13 03:45:00,
2013-02-12 20:50:00,32.0,19.7,29.81,NW,315,4.7,4.9,60,0.00,,SKC,0.00,VWS V14.01,2013-02-13 03:50:00,
2013-02-12 20:56:00,31.9,19.6,29.81,WNW,292,1.1,4.9,60,0.00,,SKC,0.00,VWS V14.01,2013-02-13 03:56:00,
2013-02-12 21:01:00,31.9,19.6,29.81,WNW,292,0.9,3.1,60,0.00,,SKC,0.00,VWS V14.01,2013-02-13 04:01:00,
2013-02-12 21:06:00,32.0,19.7,29.81,NNW,338,2.2,3.6,60,0.00,,SKC,0.00,VWS V14.01,2013-02-13 04:06:00,
2013-02-12 21:11:00,32.0,20.1,29.81,WNW,292,2.2,3.6,61,0.00,,SKC,0.00,VWS V14.01,2013-02-13 04:11:00,
2013-02-12 21:16:00,32.0,20.1,29.80,NW,315,0.2,6.7,61,0.00,,SKC,0.00,VWS V14.01,2013-02-13 04:16:00,
2013-02-12 21:21:00,32.0,20.5,29.80,NNW,338,0.7,6.7,62,0.00,,SKC,0.00,VWS V14.01,2013-02-13 04:21:00,
2013-02-12 21:26:00,32.0,20.5,29.80,ENE,68,1.8,6.7,62,0.00,,SKC,0.00,VWS V14.01,2013-02-13 04:26:00,
2013-02-12 21:31:00,32.0,20.1,29.80,WNW,292,0.9,0.9,61,0.00,,SKC,0.00,VWS V14.01,2013-02-13 04:31:00,
2013-02-12 21:37:00,32.0,20.1,29.80,NW,315,1.1,5.4,61,0.00,,SKC,0.00,VWS V14.01,2013-02-13 04:37:00,
2013-02-12 21:42:00,32.0,20.5,29.80,WNW,292,0.7,5.4,62,0.00,,SKC,0.00,VWS V14.01,2013-02-13 04:42:00,
2013-02-12 21:47:00,32.2,20.3,29.80,WNW,292,2.5,5.4,61,0.00,,SKC,0.00,VWS V14.01,2013-02-13 04:47:00,
2013-02-12 21:52:00,32.4,20.5,29.79,WNW,292,3.6,5.4,61,0.00,,SKC,0.00,VWS V14.01,2013-02-13 04:52:00,
2013-02-12 21:57:00,32.2,20.3,29.79,NNW,338,4.0,5.4,61,0.00,,SKC,0.00,VWS V14.01,2013-02-13 04:57:00,
2013-02-12 22:00:00,32.2,20.3,29.79,NW,315,1.3,5.4,61,0.00,,SKC,0.00,VWS V14.01,2013-02-13 05:00:00,
2013-02-12 22:01:00,32.4,20.5,29.79,WNW,292,1.6,5.4,61,0.00,,SKC,0.00,VWS V14.01,2013-02-13 05:01:00,
2013-02-12 22:06:00,32.2,20.3,29.79,NW,315,1.8,2.5,61,0.00,,SKC,0.00,VWS V14.01,2013-02-13 05:06:00,
2013-02-12 22:11:00,32.2,20.3,29.78,NW,315,0.4,2.5,61,0.00,,SKC,0.00,VWS V14.01,2013-02-13 05:11:00,
2013-02-12 22:16:00,32.2,20.3,29.78,WNW,292,0.4,2.5,61,0.00,,SKC,0.00,VWS V14.01,2013-02-13 05:16:00,
2013-02-12 22:21:00,32.0,20.1,29.78,WNW,292,0.4,2.5,61,0.00,,SKC,0.00,VWS V14.01,2013-02-13 05:21:00,
2013-02-12 22:26:00,32.0,20.5,29.78,NNW,338,3.8,3.8,62,0.00,,SKC,0.00,VWS V14.01,2013-02-13 05:26:00,
2013-02-12 22:31:00,32.0,20.1,29.77,WNW,292,3.6,4.3,61,0.00,,SKC,0.00,VWS V14.01,2013-02-13 05:31:00,
2013-02-12 22:36:00,32.0,20.1,29.77,NW,315,1.6,4.3,61,0.00,,SKC,0.00,VWS V14.01,2013-02-13 05:36:00,
2013-02-12 22:42:00,32.0,20.1,29.77,NW,315,3.1,4.3,61,0.00,,SKC,0.00,VWS V14.01,2013-02-13 05:42:00,
2013-02-12 22:47:00,32.0,20.1,29.77,WNW,292,0.9,4.3,61,0.00,,SKC,0.00,VWS V14.01,2013-02-13 05:47:00,
2013-02-12 22:52:00,32.0,20.1,29.76,WNW,292,0.9,4.3,61,0.00,,SKC,0.00,VWS V14.01,2013-02-13 05:52:00,
2013-02-12 22:57:00,31.9,20.0,29.77,WNW,292,1.8,4.3,61,0.00,,SKC,0.00,VWS V14.01,2013-02-13 05:57:00,
2013-02-12 23:02:00,31.9,20.0,29.77,NW,315,3.4,3.4,61,0.00,,SKC,0.00,VWS V14.01,2013-02-13 06:02:00,
2013-02-12 23:07:00,31.7,20.2,29.77,NW,315,0.7,3.4,62,0.00,,SKC,0.00,VWS V14.01,2013-02-13 06:07:00,
2013-02-12 23:12:00,31.5,20.0,29.77,NNW,338,4.7,4.7,62,0.00,,SKC,0.00,VWS V14.01,2013-02-13 06:12:00,
2013-02-12 23:17:00,31.5,20.0,29.77,NW,315,1.6,5.1,62,0.00,,SKC,0.00,VWS V14.01,2013-02-13 06:17:00,
2013-02-12 23:23:00,31.3,20.2,29.77,NW,315,2.5,5.1,63,0.00,,SKC,0.00,VWS V14.01,2013-02-13 06:23:00,
2013-02-12 23:28:00,31.1,20.0,29.77,North,0,3.6,5.1,63,0.00,,SKC,0.00,VWS V14.01,2013-02-13 06:28:00,
2013-02-12 23:33:00,31.3,20.2,29.77,NW,315,2.0,4.5,63,0.00,,SKC,0.00,VWS V14.01,2013-02-13 06:33:00,
2013-02-12 23:38:00,31.0,20.3,29.77,NW,315,3.4,4.7,64,0.00,,SKC,0.00,VWS V14.01,2013-02-13 06:38:00,
2013-02-12 23:43:00,30.8,20.1,29.77,NW,315,2.9,4.7,64,0.00,,SKC,0.00,VWS V14.01,2013-02-13 06:43:00,
2013-02-12 23:48:00,30.6,19.9,29.77,NW,315,1.1,4.7,64,0.00,,SKC,0.00,VWS V14.01,2013-02-13 06:48:00,
2013-02-12 23:53:00,30.8,20.1,29.77,WNW,292,2.0,4.7,64,0.00,,SKC,0.00,VWS V14.01,2013-02-13 06:53:00,
2013-02-12 23:58:00,30.8,20.1,29.77,WNW,292,1.6,4.7,64,0.00,,SKC,0.00,VWS V14.01,2013-02-13 06:58:00,